STARLINK-1366, 45569

Orbit data source: Space-Track

STARLINK-1366, 45569 is a payload satellite owned by SpaceX/Seattle (US) in LEO that was launched on Wed, 22 Apr 2020 UTC via an FALCON 9 launch vehicle from the Air Force Eastern Test Range (AFETR). Payload-class satellites include a variety of spacecraft equipped with specific instruments for various scientific and technological missions. These include communications satellites like Starlink; space stations such as the ISS; scientific satellites like the Hubble; Earth observation satellites from companies like Planet Labs, Umbra, and HawkEye 360; GPS; miniature CubeSats for education and research; and military/defense satellites.

Not visible in the next 10 days
Identifier
45569, 2020-025AQ
Orbit
LEO
Country
Flag of USUS
Related business
Manufacturer
SpaceX/Seattle
Mission
Partially operational Commercial Communications
Bus & Motor
STARLINK, Unknown motor
Mass
260 kg wet, ~248 kg dry
Launch date (UTC)
2020-04-22 (6 years ago)
Launch vehicle
FALCON 9
Launch site
Air Force Eastern Test Range (AFETR)
Object type
Payload
Rocket body
Debris
Shape & HBR
Box + 1 Pan, 10.1 m
Radar Cross Section
13.562 m², Large (>1 m²)

Expand to show TLE details & history
Last TLE update: 4 hours ago

TLE from 4 hours ago
0 STARLINK-1366
1 45569U 20025AQ  26125.33335648  .00320853  50171-4  93664-3 0  9999
2 45569  53.0336 112.8363 0002966  35.8804 312.4715 15.92343846  5975
Epoch: 2026-05-05T08:00Z
TLE epoch observation values (Epoch: 2026-05-05T08:00:01.999Z)
Latitude
-9.44106°
Longitude
122.46963°
Altitude
297.002 km
Speed
7.731 km/s
True Right ascension
07h 02m 45s
True Declination
-9° 22' 54"
Sunlit
Object was in daylight at epoch
Visualization orbit readout
Latitude
Unknown
Longitude
Unknown
Altitude
Unknown
Speed
Unknown
Apparent Right ascension
Unknown
Apparent Declination
Unknown
Sunlit
N/A
Visualization observer readout
Local Sidereal Time
19:28:27
Azimuth
Unknown
Elevation
Unknown
Doppler factor
Unknown
Orbital elements
Apogee altitude
297.989 km
Perigee altitude
294.03 km
Semi-major axis
6,674.147 km
Eccentricity
0.0003
Inclination
53.0336°
RAAN
112.8363°
Arg. of periapsis
35.8804°
True anomaly
312.44642°
Mean anomaly
312.4715°
Eccentric anomaly
312.45896°
Mean motion
3.98061 °/min
Orbital period
90.44 mins
BSTAR
0.00093664
Loading maneuver chart data...
Computing Atmospheric mass density...
Loading historical data...
Loading historical data...
Loading historical data...
Loading historical data...
Loading historical data...
Loading historical data...
Loading historical data...

Documentation

Showing up to 5 results
|